x

8452951 - Potter Cove, Prudence Island, Ri (ptcr1) Weather Station

3:54 - Thu 28th May 2015 All times are EDT. -4 hours from GMT.

  • Wind
    8mph, 16mph gusts
  • Aire Temp 68°f
  • Sea Pressure 1020.7mb
  • 8452951 - Potter Cove, Prudence Island, Ri
  • 8452951 - Potter Cove, Prudence Island, Ri

More Historic Weather Station data

Upgrade to MSW Pro to gain access to the past 30 days of data for over 8000 Wavebouys and Weather Stations around the globe.

Join Pro

Comparision Forecast

View Surf forecast
   
jue 05/28 3:54 8 16 mph 1020.7mb 68f
3:48 9 18 mph 1020.7mb 68f
3:42 9 15 mph 1020.7mb 68f
3:36 9 16 mph 1020.8mb 68f
3:30 7 18 mph 1020.7mb 68f
3:24 8 17 mph 1020.9mb 68f
3:18 9 16 mph 1020.9mb 68f
3:12 9 16 mph 1020.9mb 68f
3:06 8 16 mph 1021mb 69f
3:00 8 17 mph 1021mb 68f
2:54 9 17 mph 1021mb 69f
2:48 8 15 mph 1021mb 69f
2:42 8 17 mph 1021mb 69f
2:36 8 18 mph 1021.1mb 68f
2:30 8 18 mph 1021.1mb 68f
2:24 10 16 mph 1021.2mb 67f
2:18 9 18 mph 1021.3mb 68f
2:12 10 20 mph 1021.1mb 69f
2:06 11 21 mph 1021.1mb 69f
2:00 10 18 mph 1021.2mb 69f
1:54 10 18 mph 1021.1mb 70f
1:48 7 16 mph 1021.1mb 71f
1:42 7 17 mph 1021.3mb 70f
1:36 9 18 mph 1021.4mb 70f
1:30 9 17 mph 1021.4mb 70f
1:24 7 16 mph 1021.4mb 70f
1:18 8 16 mph 1021.5mb 69f
1:12 9 15 mph 1021.6mb 70f
1:06 8 14 mph 1021.8mb 71f
1:00 7 14 mph 1021.8mb 71f
12:54 8 11 mph 1021.9mb 71f
12:48 9 14 mph 1021.9mb 71f
12:42 9 18 mph 1022mb 70f
12:36 8 14 mph 1022.1mb 70f
12:30 8 15 mph 1022.2mb 70f
12:24 7 15 mph 1022.2mb 69f
12:18  -  mph 1022.3mb 69f
12:12  -  mph 1022.4mb 68f
12:06  -  mph 1022.4mb 67f
12:00 8 11 mph 1022.4mb 66f
11:54 8 15 mph 1022.4mb 66f
11:48 8 15 mph 1022.5mb 67f
11:42 10 17 mph 1022.4mb 67f
11:36 10 15 mph 1022.4mb 67f
11:30 9 15 mph 1022.3mb 67f
11:24 6 13 mph 1022.4mb 67f
11:18 3 11 mph 1022.5mb 67f
11:12 6 10 mph 1022.6mb 67f
11:06 2 7 mph 1022.6mb 66f
11:00 3 8 mph 1022.6mb 66f
10:54 5 8 mph 1022.5mb 67f
10:48 5 10 mph 1022.6mb 68f
10:42 7 14 mph 1022.4mb 69f
10:36 7 11 mph 1022.6mb 67f
10:30 7 11 mph 1022.6mb 66f
10:24 8 16 mph 1022.6mb 67f
10:18 8 15 mph 1022.8mb 67f
10:12 8 13 mph 1022.8mb 67f
10:06 8 14 mph 1022.8mb 66f
10:00 7 13 mph 1022.7mb 67f
9:54 8 16 mph 1022.8mb 66f
9:48 7 11 mph 1022.9mb 67f
9:42 7 11 mph 1022.8mb 68f
9:36 6 10 mph 1022.8mb 67f
9:30 6 13 mph 1022.7mb 66f
9:24 5 11 mph 1022.9mb 66f
9:18 6 11 mph 1022.9mb 66f
9:12 7 10 mph 1022.7mb 67f
9:06 7 13 mph 1022.8mb 67f
9:00 9 15 mph 1022.9mb 67f
8:54 8 13 mph 1022.8mb 67f
8:48 8 11 mph 1022.8mb 66f
8:42 6 9 mph 1022.8mb 66f
8:36 7 13 mph 1022.9mb 65f
8:30 7 13 mph 1022.9mb 65f
8:24 8 13 mph 1022.9mb 65f
8:18 7 13 mph 1022.9mb 65f
8:12 8 14 mph 1022.9mb 64f
8:06 9 15 mph 1022.9mb 65f
8:00 8 13 mph 1022.9mb 65f
7:54 7 11 mph 1022.8mb 64f
7:48 7 11 mph 1022.7mb 64f
7:42 6 10 mph 1022.6mb 64f
7:36 6 11 mph 1022.6mb 64f
7:30 7 10 mph 1022.6mb 63f
7:24 8 13 mph 1022.7mb 63f
7:18 7 11 mph 1022.7mb 63f
7:12 7 10 mph 1022.7mb 62f
7:06 6 8 mph 1022.7mb 62f
7:00 6 13 mph 1022.5mb 61f
6:54 5 9 mph 1022.5mb 62f
6:48 5 10 mph 1022.2mb 61f
6:42 6 13 mph 1022.2mb 61f
6:36 6 10 mph 1022.2mb 61f
6:30 6 11 mph 1022.3mb 61f
6:24 6 10 mph 1022.3mb 62f
6:18 5 9 mph 1022.2mb 61f
6:12 5 9 mph 1022.2mb 61f
6:06 5 8 mph 1022.2mb 61f
6:00 5 9 mph 1022.2mb 61f
5:54 6 9 mph 1022.1mb 61f
5:48 5 8 mph 1022.1mb 61f
5:42 6 9 mph 1022.1mb 61f
5:36 6 11 mph 1022mb 61f
5:30 5 9 mph 1022mb 61f
5:24 5 10 mph 1021.9mb 61f
5:18 3 7 mph 1021.8mb 61f
5:12 3 8 mph 1021.8mb 61f
5:06 3 8 mph 1021.9mb 62f
5:00 5 7 mph 1021.8mb 61f
4:54 5 8 mph 1021.8mb 62f
4:48 5 10 mph 1021.9mb 62f
4:42 5 8 mph 1022mb 61f
4:36 5 8 mph 1021.9mb 61f
4:30 5 9 mph 1021.9mb 61f
4:24 5 9 mph 1021.8mb 61f
4:18 5 9 mph 1021.8mb 61f
4:12 5 9 mph 1021.8mb 61f
4:06 6 8 mph 1021.9mb 61f
4:00 5 8 mph 1021.8mb 61f
3:54 5 7 mph 1021.7mb 60f
3:48 5 8 mph 1021.5mb 60f
3:42 6 10 mph 1021.5mb 60f
3:36 6 11 mph 1021.5mb 60f
3:30 7 14 mph 1021.5mb 60f
3:24 6 10 mph 1021.4mb 61f
3:18 7 10 mph - 61f
3:12 6 11 mph - 61f
3:06 6 11 mph - 61f
3:00 6 11 mph 1021.6mb 61f
2:54 7 14 mph 1021.6mb 61f
2:48 7 10 mph 1021.5mb 61f
2:42 8 13 mph 1021.6mb 61f
2:36 8 14 mph 1021.6mb 61f
2:30 7 13 mph 1021.6mb 61f
2:24 6 14 mph 1021.5mb 61f
2:18 7 11 mph 1021.6mb 61f
2:12 6 10 mph 1021.5mb 61f
2:06 7 15 mph 1021.5mb 60f
2:00 6 14 mph 1021.4mb 60f
1:54 7 15 mph 1021.5mb 61f
1:48 7 15 mph 1021.4mb 61f
1:42 6 11 mph 1021.5mb 60f
1:36 7 14 mph 1021.5mb 62f
1:30 6 13 mph 1021.4mb 62f
1:24 6 10 mph 1021.5mb 62f
1:18 6 14 mph 1021.5mb 62f
1:12 7 14 mph 1021.6mb 62f
1:06 6 14 mph 1021.6mb 62f
1:00 6 10 mph 1021.7mb 61f
12:54 5 10 mph 1021.7mb 60f
12:48 7 13 mph 1021.9mb 60f
12:42 6 10 mph 1021.9mb 60f
12:36 7 15 mph 1021.9mb 60f
12:30 7 15 mph 1022mb 60f
12:24 6 13 mph 1022.1mb 61f
12:18 6 13 mph 1022.3mb 61f
12:12 7 14 mph 1022.3mb 61f
12:06 7 16 mph 1022.3mb 61f
12:00 7 15 mph 1022.4mb 61f
mié 05/27 11:54 8 16 mph 1022.4mb 62f
11:48 7 15 mph 1022.4mb 62f
11:42 7 13 mph 1022.4mb 62f
11:36 7 13 mph 1022.4mb 62f
11:30 6 11 mph 1022.4mb 62f
11:24 7 13 mph 1022.4mb 62f
11:18 6 14 mph 1022.4mb 62f
11:12 5 9 mph 1022.4mb 62f
11:06 6 11 mph 1022.3mb 62f
11:00 5 10 mph 1022.3mb 63f
10:54 5 8 mph 1022.6mb 64f
10:48 6 14 mph 1022.3mb 64f
10:42 5 7 mph 1022.7mb 63f
10:36 3 8 mph 1022.5mb 64f
10:30 6 9 mph 1022.6mb 65f
10:24 6 9 mph 1022.8mb 65f
10:18 6 10 mph 1022.8mb 65f
10:12 6 10 mph 1022.7mb 65f
10:06 7 11 mph 1022.8mb 65f
10:00 6 9 mph 1022.8mb 65f
9:54 6 11 mph 1022.7mb 65f
9:48 6 9 mph 1022.7mb 64f
9:42 6 10 mph 1022.9mb 64f
9:36 6 9 mph 1022.9mb 64f
9:30 6 9 mph 1022.9mb 64f
9:24 6 10 mph 1022.9mb 65f
9:18 7 11 mph 1022.8mb 64f
9:12 8 13 mph 1022.8mb 64f
9:06 7 13 mph 1022.7mb 64f
9:00 7 14 mph 1022.6mb 64f
8:54 7 14 mph 1022.6mb 65f
8:48 8 14 mph 1022.6mb 65f
8:42 8 11 mph 1022.5mb 65f
8:36 8 14 mph 1022.5mb 65f
8:30 8 15 mph 1022.5mb 65f
8:24 7 11 mph 1022.4mb 65f
8:18 7 13 mph 1022.5mb 65f
8:12 8 13 mph 1022.4mb 65f
8:06 8 13 mph 1022.5mb 65f
8:00 7 11 mph 1022.3mb 65f
7:54 7 14 mph 1022.3mb 65f
7:48 9 15 mph 1022.3mb 65f
7:42 8 14 mph 1022.2mb 65f
7:36 9 15 mph 1022.1mb 65f
7:30 8 14 mph 1022.1mb 65f
7:24 7 11 mph 1022.1mb 66f
7:18 10 16 mph 1022.2mb 67f
7:12 13 18 mph 1022.2mb 67f
7:06 11 22 mph 1022mb 67f
7:00 14 22 mph 1021.8mb 67f
6:00 13 22 mph 1021.4mb 68f
5:30 11 21 mph 1021.6mb 68f
5:24 10 18 mph 1021.6mb 68f
5:18 10 18 mph 1021.7mb 67f
5:12 10 18 mph 1021.7mb 67f
5:06 9 17 mph 1021.7mb 67f
5:00 10 17 mph 1021.8mb 67f
4:54 10 17 mph 1021.7mb 67f
4:48 9 18 mph 1021.7mb 67f
4:42 10 17 mph 1021.6mb 67f
4:36 11 20 mph 1021.6mb 67f
4:30 10 20 mph 1021.6mb 67f
4:24 10 21 mph 1021.7mb 67f
4:18 10 16 mph 1021.7mb 67f
4:12 9 16 mph 1021.7mb 67f
4:06 10 15 mph 1021.8mb 67f
4:00 10 18 mph 1021.9mb 67f
3:54 9 16 mph 1021.8mb 67f
3:48 8 18 mph 1021.9mb 67f
3:42 8 15 mph 1021.9mb 67f
3:36 8 17 mph 1022mb 67f
3:30 8 15 mph 1022.1mb 67f
3:24 10 17 mph 1022.1mb 67f
3:18 9 18 mph 1022.1mb 67f
3:12 9 16 mph 1022.1mb 67f
3:06 9 17 mph 1022.2mb 68f
3:00 8 17 mph 1022.2mb 68f
2:54 6 11 mph 1022.3mb 65f
2:48 8 13 mph 1022.1mb 67f
2:42 8 17 mph 1022mb 68f
2:36 8 13 mph 1022.1mb 68f
2:30 7 13 mph 1022.1mb 69f
2:24 8 14 mph 1022.1mb 69f
2:18 7 13 mph 1022.3mb 68f
2:12 9 17 mph 1022.4mb 68f
2:06 8 17 mph 1022.5mb 68f
2:00 8 15 mph 1022.5mb 68f
1:54 8 16 mph 1022.5mb 68f
1:48 9 17 mph 1022.6mb 67f
1:42 9 17 mph 1022.6mb 67f
1:36 9 17 mph 1022.6mb 67f
1:30 9 20 mph 1022.7mb 67f
1:24 8 18 mph 1022.8mb 67f
1:18 8 16 mph 1022.8mb 67f
1:12 7 14 mph 1022.9mb 67f
1:06 8 17 mph 1023mb 67f
1:00 8 15 mph 1023mb 66f
12:54 10 22 mph 1023.1mb 66f
12:48 9 17 mph 1023.1mb 67f
12:42 9 17 mph 1023.3mb 66f
12:36 9 17 mph 1023.4mb 66f
12:30 8 16 mph 1023.5mb 66f
12:24 9 17 mph 1023.5mb 66f
12:18 9 20 mph 1023.4mb 66f
12:12 10 20 mph 1023.4mb 66f
12:06 10 21 mph 1023.3mb 66f
12:00 8 17 mph 1023.3mb 66f
11:54 11 21 mph 1023.3mb 65f
11:48 8 16 mph 1023.4mb 66f
11:42 9 18 mph 1023.3mb 65f
11:36 11 20 mph 1023.3mb 65f
11:30 8 16 mph 1023.4mb 65f
11:24 10 16 mph 1023.5mb 65f
11:18 9 17 mph 1023.4mb 65f
11:12 9 20 mph 1023.4mb 65f
11:06 9 21 mph 1023.4mb 66f
11:00 8 16 mph 1023.3mb 66f
10:54 8 17 mph 1023.3mb 66f
10:48 7 16 mph 1023.4mb 67f
10:42 7 20 mph 1023.4mb 66f
10:36 8 17 mph 1023.4mb 65f
10:30 7 17 mph 1023.4mb 65f
10:24 7 18 mph 1023.3mb 66f
10:18 6 14 mph 1023.1mb 66f
10:12 6 13 mph 1023.2mb 67f
10:06 3 6 mph 1023.2mb 67f
10:00 6 10 mph 1023.3mb 67f
9:54 5 9 mph 1023.3mb 67f
9:48 6 16 mph 1023.3mb 67f
9:42 7 14 mph 1023.2mb 67f
9:36 7 11 mph 1023.2mb 67f
9:30 7 13 mph 1023.2mb 66f
9:24 7 13 mph 1023.3mb 66f
9:18 8 15 mph 1023.3mb 66f
9:12 7 14 mph 1023.3mb 66f
9:06 6 15 mph 1023.4mb 64f
9:00 5 13 mph 1023.5mb 64f
8:54 6 13 mph 1023.5mb 63f
8:48 6 11 mph 1023.6mb 63f
8:42 5 11 mph 1023.5mb 63f
8:36 8 14 mph 1023.5mb 63f
8:30 7 15 mph 1023.4mb 63f
8:24 7 14 mph 1023.4mb 62f
8:18 7 15 mph 1023.4mb 62f
8:12 8 16 mph 1023.4mb 61f
8:06 8 16 mph 1023.4mb 61f
8:00 8 14 mph 1023.5mb 62f
7:54 7 14 mph 1023.5mb 62f
7:48 7 16 mph 1023.4mb 61f
7:42 7 16 mph 1023.3mb 61f
7:36 6 14 mph 1023.3mb 61f
7:30 8 15 mph 1023.3mb 61f
7:24 9 16 mph 1023.3mb 61f
7:18 7 14 mph 1023.4mb 61f
7:12 6 14 mph 1023.3mb 61f
7:06 7 15 mph 1023.3mb 60f
7:00 7 14 mph 1023.3mb 60f
6:54 7 15 mph 1023.2mb 59f
6:48 6 14 mph 1023.2mb 59f
6:42 8 15 mph 1023.2mb 59f
6:36 7 14 mph 1023.2mb 59f
6:30 8 15 mph 1023.2mb 59f
6:24 8 15 mph 1023.1mb 59f
6:18 8 16 mph 1023.1mb 59f
6:12 6 13 mph 1023.1mb 59f
6:06 7 13 mph 1023.2mb 59f
6:00 6 13 mph 1023.2mb 59f
5:54 6 13 mph 1023.2mb 60f
5:48 7 15 mph - -
5:42 6 13 mph - -
5:36 6 10 mph - -
5:30 6 10 mph 1023.1mb 58f
5:24 6 11 mph 1023.1mb 58f
5:18  -  mph 1023mb 58f
5:12  -  mph 1023mb 58f
5:06  -  mph 1022.9mb 58f
5:00 7 14 mph 1022.9mb 58f
4:54 7 15 mph 1022.9mb 58f
4:48 7 16 mph 1022.8mb 59f
4:42 8 15 mph 1022.8mb 59f
4:36 7 13 mph 1022.9mb 58f
4:30 7 15 mph 1022.8mb 58f
4:24 7 13 mph 1022.8mb 58f
4:18 5 9 mph 1022.7mb 58f
4:12 6 10 mph 1022.7mb 59f
4:06 6 11 mph 1022.7mb 59f
4:00 6 11 mph 1022.6mb 59f
3:54 6 11 mph 1022.6mb 59f
3:48 6 15 mph 1022.6mb 59f
3:42 6 13 mph 1022.6mb 59f
3:36 6 13 mph 1022.6mb 59f
3:30  -  mph 1022.6mb -
3:24  -  mph 1022.6mb -
3:18 6 10 mph 1022.5mb -
3:12 6 11 mph 1022.5mb -
3:06 6 13 mph 1022.6mb -
3:00 6 11 mph 1022.6mb -
2:54 6 11 mph 1022.7mb -
2:48 6 11 mph 1022.7mb -
2:42 6 13 mph 1022.7mb -
2:36 6 10 mph 1022.8mb -
2:30 5 10 mph 1022.8mb 59f
2:24 6 9 mph 1022.9mb 59f
2:18 6 11 mph 1022.8mb 59f
2:12 6 11 mph 1023mb 59f
2:06 5 10 mph 1022.9mb 59f
2:00  -  mph - 60f
1:54  -  mph - 60f
1:48 5 9 mph 1023.1mb 61f
1:42 6 9 mph 1023.1mb 61f
1:36 6 10 mph 1023.1mb 61f
1:30 6 11 mph 1023.1mb 61f
1:24 7 13 mph 1023.1mb 61f
1:18 6 13 mph 1023.1mb 61f
1:12 7 13 mph 1023.1mb 61f
1:06 7 14 mph 1023.1mb 61f
1:00 5 11 mph 1023.2mb 61f
12:54 5 11 mph 1023.2mb 61f
12:48 6 11 mph 1023.2mb 61f
12:42 5 9 mph 1023.2mb 61f
12:36 6 11 mph 1023.2mb 61f
12:30 5 8 mph 1023.1mb 60f
12:24 6 9 mph 1023.1mb 60f
12:18 5 10 mph 1023.2mb 60f
12:12 6 10 mph 1023.2mb 60f
12:06 5 10 mph 1023.2mb 60f
12:00 6 11 mph 1023.2mb 60f
mar 05/26 11:54 5 8 mph 1023.3mb 61f
11:48 5 9 mph 1023.4mb 60f
11:42 5 10 mph 1023.4mb 61f
11:36 5 9 mph 1023.4mb 61f
11:30 6 10 mph 1023.3mb 61f
11:24 6 9 mph 1023.2mb 61f
11:18 5 10 mph 1023.2mb 61f
11:12 5 9 mph 1023.2mb 61f
11:06 6 11 mph 1023.1mb 61f
11:00 5 9 mph 1023mb 62f
10:54 6 11 mph 1023mb 62f
10:48 6 11 mph 1022.9mb 62f
10:42 6 10 mph 1022.9mb 62f
10:36 5 10 mph 1022.9mb 62f
10:30 5 10 mph 1022.9mb 62f
10:24 5 10 mph 1022.8mb 62f
10:18 6 10 mph 1022.8mb 62f
10:12 6 9 mph 1022.8mb 62f
10:06 3 8 mph 1022.8mb 62f
10:00 3 9 mph 1022.9mb 62f
9:54 5 10 mph 1023mb 62f
9:48 5 7 mph 1023.1mb 62f
9:42 3 7 mph 1023.1mb 62f
9:36 3 6 mph 1023mb 62f
9:30 2 6 mph 1022.8mb 62f
9:24 3 9 mph 1022.7mb 62f
9:18 5 9 mph 1022.6mb 62f
9:12 6 11 mph 1022.6mb 63f
9:06 7 13 mph 1022.5mb 63f
9:00 6 13 mph 1022.4mb 63f
8:54 7 13 mph 1022.3mb 63f
8:48 6 13 mph 1022.2mb 63f
8:42 6 10 mph 1022.2mb 62f
8:36 6 11 mph 1022.1mb 63f
8:30 6 11 mph 1022mb 64f
8:24 6 11 mph 1022.1mb 64f
8:18 7 13 mph 1022.1mb 64f
8:12 6 10 mph 1022.1mb 64f
8:06 6 10 mph 1022.1mb 64f
8:00 7 14 mph 1022.1mb 64f
7:54 7 13 mph 1022mb 64f
7:48 6 14 mph 1022mb 65f
7:42 6 9 mph 1022.1mb 65f
7:36 7 14 mph 1022.1mb 65f
7:30 7 13 mph 1022mb 66f
7:24 7 13 mph 1022mb 66f
7:18 7 13 mph 1022mb 66f
7:12 7 14 mph 1022mb 66f
7:06 7 14 mph 1022mb 67f
7:00 9 16 mph 1022mb 69f
6:54 9 15 mph 1022.1mb 68f
6:48 9 16 mph 1022.1mb 68f
6:42 11 22 mph 1022mb 69f
6:36 9 17 mph 1021.9mb 69f
6:30 8 13 mph 1021.9mb 67f
6:24 7 11 mph 1021.9mb 65f
6:18 7 13 mph 1021.9mb 66f
6:12 8 17 mph 1021.9mb 66f
6:06 7 16 mph 1021.9mb 67f
6:00 8 14 mph 1021.8mb 69f
5:54 9 16 mph 1021.8mb 69f
5:48 9 17 mph 1021.8mb 69f
5:42 8 15 mph 1021.8mb 69f
5:36 8 15 mph 1021.8mb 69f
5:30 7 15 mph 1021.8mb 69f
5:24 7 14 mph 1021.8mb 68f
5:18 7 15 mph 1021.9mb 68f
5:12 8 16 mph 1021.9mb 67f
5:06 8 17 mph 1021.9mb 67f
5:00 8 15 mph 1021.8mb 67f
4:54 9 15 mph 1021.8mb 67f
4:48 9 17 mph 1021.8mb 67f
4:42 10 18 mph 1021.8mb 67f
4:36 10 21 mph 1021.7mb 67f
4:30 9 17 mph 1021.7mb 68f
4:24 10 16 mph 1021.7mb 68f
4:18 11 17 mph 1021.8mb 68f
4:12 10 16 mph 1021.7mb 69f
4:06 7 16 mph 1021.8mb 70f
4:00 8 15 mph 1021.9mb 70f
3:54 6 14 mph 1021.9mb 71f
3:48 7 16 mph 1021.9mb 71f
3:42 7 14 mph 1022mb 71f
3:36 7 16 mph 1022mb 71f
3:30 7 15 mph 1022mb 70f
3:24 7 14 mph 1022mb 71f
3:18 8 16 mph 1022.1mb 71f
3:12 7 16 mph 1022.2mb 71f
3:06 9 18 mph 1022.1mb 70f
3:00 8 16 mph 1022.1mb 70f
2:54 8 17 mph 1022mb 71f
2:48 7 14 mph 1022.1mb 70f
2:42 8 16 mph 1022.2mb 69f
2:36 9 18 mph 1022.2mb 69f
2:30 8 18 mph 1022.4mb 69f
2:24 9 17 mph 1022.4mb 69f
2:18 9 18 mph 1022.5mb 69f
2:12 9 17 mph 1022.4mb 69f
2:06 7 14 mph 1022.4mb 69f
2:00 7 14 mph 1022.4mb 69f
1:54 7 15 mph 1022.5mb 69f
1:48 7 14 mph 1022.7mb 68f
1:30 7 16 mph 1022.8mb 66f
1:24 9 16 mph 1022.9mb 66f
1:18 9 16 mph 1023mb 66f
1:12 7 15 mph 1023.2mb 66f
1:06 6 17 mph 1023.2mb 65f
1:00 6 11 mph 1023.2mb 66f
12:54 6 11 mph 1023.3mb 67f
12:48 6 11 mph 1023.4mb 67f
12:42 6 11 mph 1023.4mb 67f
12:36 7 11 mph 1023.4mb 67f
12:30 9 16 mph 1023.4mb 67f
12:24 8 11 mph 1023.3mb 67f
12:18 6 11 mph 1023.3mb 67f
12:12 7 15 mph 1023.1mb 67f
12:06 8 16 mph 1023.1mb 67f
12:00 8 16 mph 1023.2mb 67f
11:54 8 16 mph 1023.2mb 67f
11:48 7 13 mph 1023.2mb 68f
11:42 8 15 mph 1023.2mb 68f
11:36 6 13 mph 1023.2mb 68f
11:30 6 11 mph 1023.4mb 68f
11:24 6 10 mph 1023.3mb 68f
11:18 7 14 mph 1023.3mb 68f
11:12 7 15 mph 1023.4mb 69f
11:06 7 14 mph 1023.5mb 68f
11:00 7 16 mph 1023.5mb 68f
10:54 7 14 mph 1023.6mb 69f
10:48 7 14 mph 1023.3mb 69f
10:42 6 15 mph 1023.2mb 67f
10:36 8 16 mph 1023.1mb 67f
10:30 7 11 mph 1023mb 69f
10:24 7 16 mph 1023mb 69f
10:18 7 16 mph 1023mb 69f
10:12 7 16 mph 1023.1mb 68f
10:06 7 14 mph 1023.2mb 67f
10:00 7 14 mph 1023.3mb 65f
9:54 6 11 mph 1023.4mb 66f
9:48 7 13 mph 1023.4mb 66f
9:42 6 10 mph 1023.3mb 66f
9:36 7 11 mph 1023.4mb 65f
9:30 6 13 mph 1023.4mb 65f
9:24 9 15 mph 1023.4mb 64f
9:18 8 13 mph 1023.5mb 65f
9:12 6 10 mph 1023.5mb 65f
9:06 8 16 mph 1023.5mb 65f
9:00 7 14 mph 1023.5mb 64f
8:54 8 14 mph 1023.5mb 64f
8:48 6 11 mph 1023.6mb 63f
8:42 6 13 mph 1023.7mb 63f
8:36 9 15 mph 1023.6mb 63f
8:30 8 14 mph 1023.5mb 64f
8:24 8 14 mph 1023.4mb 65f
8:18 7 13 mph 1023.4mb 64f
8:12 8 14 mph 1023.4mb 64f
8:06 8 16 mph 1023.4mb 63f
8:00 7 14 mph 1023.4mb 62f
7:54 7 13 mph 1023.4mb 62f
7:48 6 9 mph 1023.6mb 61f
7:42 7 15 mph 1023.6mb 61f
7:36 7 11 mph 1023.6mb 61f
7:30 7 11 mph 1023.6mb 61f
7:24 7 11 mph 1023.6mb 61f
7:18 7 10 mph 1023.7mb 61f
7:12 8 14 mph 1023.7mb 61f
7:06 7 13 mph 1023.7mb 61f
7:00 7 13 mph 1023.5mb 61f
6:54 8 14 mph 1023.5mb 61f
6:48 7 13 mph 1023.4mb 60f
6:42 7 13 mph 1023.4mb 60f
6:36 7 13 mph 1023.4mb 60f
6:30 7 13 mph 1023.3mb 60f
6:24 7 15 mph 1023.3mb 60f
6:18 7 14 mph 1023.3mb 60f
6:12 8 15 mph 1023.1mb 59f
6:06 8 15 mph 1023mb 59f
6:00 8 16 mph 1023mb 60f
5:54 8 15 mph 1023mb 59f
5:48 8 16 mph 1023mb 59f
5:42 7 14 mph 1023.1mb 59f
5:36 8 15 mph 1023mb 59f
5:30 7 14 mph 1023.1mb 60f
5:24 8 14 mph 1023mb 60f
5:18 8 16 mph 1022.9mb 60f
5:12 7 14 mph 1022.9mb 60f
5:06 7 14 mph 1023.1mb 60f
5:00 6 10 mph 1023.1mb 60f
4:54 6 14 mph 1023.1mb 60f
4:48 7 13 mph 1023mb 60f
4:42 7 11 mph 1023mb 60f
4:36 6 13 mph 1022.9mb 60f
4:30 6 11 mph 1023mb 60f
4:24 7 13 mph 1022.9mb 60f
4:18 6 10 mph 1023mb 60f
4:12 6 11 mph 1023.1mb 60f
4:06 6 10 mph 1023.1mb 60f
4:00 7 13 mph 1023mb 60f
3:54 8 13 mph 1023mb 60f
3:48 8 14 mph 1023mb 60f
3:42 9 15 mph 1022.9mb 60f
3:36 8 14 mph 1023mb 60f
3:30 7 11 mph 1023mb 60f
3:24 7 14 mph 1023mb 61f
3:18 7 13 mph 1023.1mb 61f
3:12 8 13 mph 1023.1mb 61f
3:06 6 11 mph 1023.1mb 61f
3:00 8 14 mph 1023.1mb 61f
2:54 8 15 mph 1023mb 61f
2:48 7 13 mph - 61f
2:42 8 14 mph - 61f
2:36 7 14 mph - 62f
2:30 8 14 mph 1022.8mb 62f
2:24 7 15 mph 1022.7mb 62f
2:18 8 15 mph 1022.8mb 62f
2:12 7 13 mph 1022.8mb 62f
2:06 7 14 mph 1022.9mb 61f
2:00 6 11 mph 1022.9mb 61f
1:54 7 11 mph 1023mb 62f
1:48 6 10 mph 1023mb 62f
1:42 7 14 mph 1023.1mb 62f
1:36 7 13 mph 1023.1mb 62f
1:30 6 11 mph 1023.2mb 62f
1:24 7 13 mph 1023.2mb 62f
1:18 7 14 mph 1023.3mb 62f
1:12 7 13 mph 1023.4mb 62f
1:06 8 14 mph 1023.5mb 62f
1:00 6 13 mph 1023.5mb 62f
12:54 7 11 mph 1023.5mb 62f
12:48 7 14 mph 1023.5mb 62f
12:42 8 16 mph 1023.5mb 62f
12:36 8 14 mph 1023.5mb 62f
12:30 7 11 mph 1023.5mb 62f
12:24 8 14 mph 1023.5mb 62f
12:18 8 14 mph 1023.5mb 62f
12:12 8 14 mph 1023.6mb 62f
12:06 9 16 mph 1023.6mb 62f
12:00 8 15 mph 1023.5mb 61f
lun 05/25 11:54 7 14 mph 1023.6mb 61f
11:48 8 16 mph 1023.5mb 61f
11:42 7 11 mph 1023.5mb 61f
11:36 7 11 mph 1023.5mb 61f
11:30 7 14 mph 1023.4mb 61f
11:24 7 15 mph 1023.3mb 61f
11:18 7 14 mph 1023.3mb 61f
11:12 7 15 mph 1023.4mb 61f
11:06 6 10 mph 1023.4mb 61f
11:00 6 9 mph 1023.4mb 61f
10:54 6 14 mph 1023.4mb 60f
10:48 6 10 mph 1023.4mb 59f
10:42 6 13 mph 1023.4mb 59f
10:36 6 11 mph 1023.4mb 59f
10:30 6 13 mph 1023.4mb 60f
10:24 6 13 mph 1023.5mb 60f
10:18 6 11 mph 1023.5mb 60f
10:12 6 13 mph 1023.6mb 60f
10:06 6 11 mph 1023.6mb 60f
10:00 7 11 mph 1023.7mb 60f
9:54 6 9 mph 1023.7mb 60f
9:48 6 11 mph 1023.6mb 60f
9:42 6 11 mph 1023.6mb 60f
9:36 6 10 mph 1023.6mb 60f
9:30 6 9 mph 1023.5mb 60f
9:24 6 13 mph 1023.5mb 60f
9:18 5 9 mph 1023.6mb 60f
9:12 5 9 mph 1023.6mb 59f
9:06 5 7 mph 1023.5mb 59f
9:00 7 11 mph 1023.5mb 59f
8:54 6 11 mph 1023.5mb 59f
8:48 6 16 mph 1023.4mb 59f
8:42 7 15 mph 1023.4mb 59f
8:36 7 15 mph 1023.4mb 59f
8:30 6 15 mph 1023.4mb 59f
8:24 7 14 mph 1023.5mb 59f
8:18 7 13 mph 1023.5mb 59f
8:12 8 14 mph 1023.5mb 59f
8:06 8 13 mph 1023.4mb 59f
8:00 8 16 mph 1023.5mb 60f
7:54 7 15 mph 1023.4mb 60f
7:48 8 16 mph 1023.4mb 60f
7:42 7 15 mph 1023.4mb 60f
7:36 7 15 mph 1023.4mb 60f
7:30 8 16 mph 1023.4mb 61f
7:24 7 14 mph 1023.5mb 61f
7:18 7 15 mph 1023.5mb 61f
7:12 7 15 mph 1023.5mb 61f
7:06 7 14 mph 1023.5mb 62f
7:00 7 14 mph 1023.5mb 62f
6:54 7 11 mph 1023.5mb 62f
6:48 7 11 mph 1023.5mb 62f
6:42 7 14 mph 1023.5mb 63f
6:36 7 16 mph 1023.6mb 63f
6:30 7 15 mph 1023.7mb 63f
6:24 7 15 mph 1023.6mb 63f
6:18 7 14 mph 1023.6mb 64f
6:12 7 15 mph 1023.5mb 64f
6:06 7 14 mph 1023.4mb 65f
6:00 7 15 mph 1023.4mb 65f
5:54 7 17 mph 1023.5mb 65f
5:48 7 13 mph 1023.5mb 65f
5:42 8 14 mph 1023.7mb 65f
5:36 8 14 mph 1023.8mb 65f
5:30 7 14 mph 1023.7mb 65f
5:24 8 15 mph 1023.7mb 63f
5:18 7 13 mph 1023.7mb 63f
5:12 6 11 mph 1023.8mb 63f
5:06 6 13 mph 1023.7mb 63f
5:00 7 15 mph 1023.7mb 63f
4:54 7 15 mph 1023.7mb 63f
4:48 7 16 mph 1023.7mb 63f
4:42 6 14 mph 1023.8mb 64f
4:36 6 13 mph 1023.8mb 64f
4:30 8 11 mph 1023.8mb 64f
4:24 7 13 mph 1023.8mb 64f
4:18 7 13 mph 1023.8mb 65f
4:12 6 13 mph 1023.8mb 65f
4:06 7 13 mph 1023.8mb 65f
4:00 8 14 mph 1023.7mb 65f
3:54 6 11 mph 1023.8mb 65f
3:48 7 15 mph 1023.8mb 66f
3:42 6 11 mph 1023.7mb 66f
3:36 6 14 mph 1023.7mb 66f
3:30 7 15 mph 1023.8mb 67f
3:24 7 15 mph 1023.9mb 67f
3:18 7 14 mph 1024mb 68f
3:12 7 11 mph 1024.1mb 68f
3:06 7 14 mph 1024.1mb 68f
3:00 8 15 mph 1024.1mb 69f
2:54 6 13 mph 1024.1mb 67f
2:48 7 15 mph 1024.1mb 67f
2:42 6 13 mph 1024.1mb 67f
2:36 8 13 mph 1024mb 68f
2:30 7 14 mph 1024mb 68f
2:24 7 15 mph 1024.1mb 69f
2:18 7 15 mph 1024.2mb 69f
2:12 7 15 mph 1024.2mb 70f
2:06 8 15 mph 1024.2mb 70f
2:00 7 16 mph 1024.3mb 70f
1:54 7 14 mph 1024.4mb 70f
1:48 8 16 mph 1024.5mb 70f
1:42 7 14 mph 1024.5mb 69f
1:36 7 14 mph 1024.5mb 69f
1:30 7 14 mph 1024.5mb 69f
1:24 8 15 mph 1024.9mb 68f
1:18 7 15 mph 1025mb 68f
1:12 7 14 mph 1025.1mb 66f
1:06 8 14 mph 1025.1mb 66f
1:00 7 11 mph 1025.1mb 65f
12:54 7 13 mph 1025.2mb 64f
12:48 6 14 mph 1025.2mb 64f
12:42 7 15 mph 1025.2mb 65f
12:36 6 13 mph 1025.2mb 64f
12:30 6 14 mph 1025.2mb 64f
12:24 6 11 mph 1025.3mb 64f
12:18 6 10 mph 1025.3mb 65f
12:12 5 11 mph 1025.3mb 65f
12:06 5 11 mph 1025.4mb 64f
12:00 6 11 mph 1025.5mb 64f
11:54 6 10 mph 1025.5mb 65f
11:48 6 13 mph 1025.6mb 64f
11:42 6 11 mph 1025.5mb 64f
11:36 6 10 mph 1025.6mb 64f
11:30 6 9 mph 1025.6mb 64f
11:24 6 10 mph 1025.6mb 65f
11:18 6 10 mph 1025.6mb 65f
11:12 5 10 mph 1025.6mb 64f
11:06 6 13 mph 1025.6mb 64f
11:00 5 9 mph 1025.6mb 64f
10:54 6 11 mph 1025.5mb 65f
10:48 5 11 mph 1025.4mb 66f
10:42 5 9 mph 1025.4mb 67f
10:36 6 10 mph 1025.4mb 66f
10:30 6 11 mph 1025.4mb 67f
10:24 7 13 mph 1025.4mb 67f
10:18 5 10 mph 1025.4mb 66f
10:12 6 9 mph 1025.4mb 66f
10:06 6 10 mph 1025.4mb 66f
10:00 6 10 mph 1025.4mb 67f
9:54 3 7 mph 1025.4mb 66f
9:48 3 8 mph 1025.4mb 66f
9:42 5 9 mph 1025.4mb 65f
9:36 3 8 mph 1025.5mb 64f
9:30 5 8 mph 1025.5mb 64f
9:24 5 8 mph 1025.6mb 63f
9:18 7 10 mph 1025.6mb 62f
9:12 3 7 mph 1025.6mb 63f
9:06 5 9 mph 1025.5mb 63f
9:00 6 9 mph 1025.5mb 63f
8:54 7 10 mph 1025.5mb 62f
8:48 5 9 mph 1025.5mb 62f
8:42 7 11 mph 1025.5mb 62f
8:36 7 13 mph 1025.6mb 62f
8:30 6 9 mph 1025.6mb 62f
8:24 7 10 mph 1025.6mb 61f
8:18 5 8 mph 1025.6mb 62f
8:12 6 10 mph 1025.7mb 62f
8:06 6 9 mph 1025.6mb 61f
8:00 6 10 mph 1025.7mb 61f
7:54 6 10 mph 1025.7mb 61f
7:48 5 8 mph 1025.6mb 61f
7:42 6 11 mph 1025.6mb 60f
7:36 6 10 mph 1025.7mb 60f
7:30 5 9 mph 1025.7mb 59f
7:24 5 8 mph 1025.7mb 59f
7:18 5 9 mph 1025.7mb 59f
7:12 6 10 mph 1025.6mb 58f
7:06 6 10 mph 1025.6mb 58f
7:00 5 8 mph 1025.6mb 58f
6:54 6 9 mph 1025.6mb 58f
6:48 5 9 mph 1025.6mb 57f
6:42 3 7 mph 1025.5mb 58f
6:36 5 9 mph 1025.5mb 57f
6:30 5 9 mph 1025.5mb 57f
6:24 3 7 mph 1025.5mb 56f
6:18 5 9 mph 1025.6mb 56f
6:12 5 9 mph 1025.6mb 56f
6:06 5 8 mph 1025.6mb 56f
6:00 5 10 mph 1025.5mb 55f
5:54 5 8 mph 1025.5mb 55f
5:48 3 8 mph 1025.5mb 55f
5:42 3 6 mph 1025.5mb 55f
5:36 5 7 mph 1025.4mb 55f
5:30 5 8 mph 1025.3mb 55f
5:24 5 9 mph 1025.3mb 55f
5:18 5 8 mph 1025.3mb 55f
5:12 5 7 mph 1025.2mb 55f
5:06 5 9 mph 1025.2mb 55f
5:00 3 7 mph 1025.1mb 55f
4:54 5 9 mph 1025mb 55f
4:48 6 10 mph 1024.9mb 55f
4:42 5 9 mph 1024.9mb 55f
4:36 5 8 mph 1024.9mb 55f
4:30 5 8 mph 1024.9mb 55f
4:24 5 7 mph 1024.8mb 55f
4:18 5 8 mph 1024.8mb 55f
4:12 5 8 mph 1024.8mb 55f
4:06 5 6 mph 1024.8mb 55f
4:00 3 8 mph 1024.8mb 56f
3:54 5 8 mph 1024.8mb 56f
3:48 5 7 mph 1024.8mb 56f
3:42 5 7 mph 1024.7mb 56f
3:36 3 6 mph 1024.7mb 56f
3:30 5 7 mph 1024.7mb 57f
3:24 3 6 mph 1024.7mb 57f
3:18 3 6 mph 1024.7mb 57f
3:12 3 6 mph 1024.7mb 57f
3:06 3 7 mph 1024.8mb 57f
3:00 3 7 mph 1024.7mb 57f
2:54 3 7 mph 1024.7mb 57f
2:48 3 7 mph - 57f
2:42 3 9 mph - 58f
2:36 5 8 mph - 58f
2:30 5 8 mph 1024.7mb 58f
2:24 6 8 mph 1024.8mb 58f
2:18 6 9 mph 1024.9mb 58f
2:12 6 8 mph 1024.9mb 58f
2:06 5 7 mph 1024.9mb 57f
2:00 5 8 mph 1025mb 58f
1:54 3 7 mph 1024.9mb 57f
1:48 3 7 mph 1024.9mb 57f
1:42 3 7 mph 1024.9mb 58f
1:36 3 7 mph 1024.9mb 58f
1:30 5 10 mph 1024.9mb 58f
1:24 7 10 mph 1024.8mb 58f
1:18 6 10 mph 1024.8mb 58f
1:12 6 9 mph 1025mb 58f
1:06 6 10 mph 1025mb 58f
1:00 6 10 mph 1025.1mb 58f
12:54 6 10 mph 1025.1mb 58f
12:48 5 6 mph 1025.1mb 58f
12:42 3 6 mph 1025.3mb 58f
12:36 3 5 mph 1025.3mb 58f
12:30 3 7 mph 1025.3mb 58f
12:24 3 5 mph 1025.3mb 58f
12:18 2 3 mph 1025.3mb 58f
12:12 2 5 mph 1025.3mb 58f
12:06 1 2 mph 1025.3mb 59f
12:00 2 3 mph 1025.3mb 59f
dom 05/24 11:54 3 7 mph 1025.4mb 60f
11:48 3 8 mph 1025.4mb 60f
11:42 6 10 mph 1025.5mb 60f
11:36 5 8 mph 1025.5mb 60f
11:30 3 9 mph 1025.5mb 60f
11:24 3 10 mph 1025.5mb 60f
11:18 5 9 mph 1025.4mb 61f
11:12 6 11 mph 1025.4mb 61f
11:06 7 11 mph 1025.3mb 61f
11:00 8 14 mph 1025.3mb 61f
10:54 7 10 mph 1025.4mb 61f
10:48 5 8 mph 1025.4mb 61f
10:42 5 7 mph 1025.3mb 60f
10:36 6 10 mph 1025.4mb 61f
10:30 6 10 mph 1025.3mb 61f
10:24 6 10 mph 1025.4mb 61f
10:18 6 10 mph 1025.4mb 61f
10:12 6 10 mph 1025.4mb 61f
10:06 6 9 mph 1025.4mb 61f
10:00 6 9 mph 1025.3mb 61f
9:54 5 8 mph 1025.3mb 61f
9:48 6 10 mph 1025.3mb 61f
9:42 6 10 mph 1025.2mb 61f
9:36 6 9 mph 1025.2mb 61f
9:30 6 10 mph 1025.2mb 61f
9:24 6 9 mph 1025.2mb 61f
9:18 7 13 mph 1025mb 61f
9:12 7 13 mph 1024.9mb 61f
9:06 6 10 mph 1024.9mb 61f
9:00 6 10 mph 1024.9mb 61f
8:54 6 10 mph 1024.8mb 61f
8:48 7 15 mph 1024.7mb 61f
8:42 6 10 mph 1024.7mb 61f